Location: Grange Verzio
(44.5000°N, 6.9833°E)
Time: 18:31:58
(UTC+00:00)

Cosmos 1023 Rocket - Visible Passes

Search period start: 19 April 2025 00:00
Search period end: 29 April 2025 00:00
Orbit: 732 x 768 km, 74.1° (Epoch: 19 April)

Date Brightness Start Highest point End Pass type
(mag) Time Alt. Az. Time Alt. Az. Time Alt. Az.
19 Apr 5.4 18:56:03 10° NNW 19:01:04 52° WSW 19:05:59 10° S visible
20 Apr 7.3 19:57:34 10° WNW 19:59:30 12° W 20:01:25 10° WSW visible
21 Apr 6.8 19:13:24 10° NW 19:17:25 23° W 19:21:24 10° SSW visible
